PAL284 RPLL-KJFK

Flight info

Callsign PAL284
Flight time N/A
Altitude 29000
Route JOM2R JOM A590 BIXAK/N0505F310 A590 BUBDO Y527 DOMBI Y57 POROT OTR11 LEPKI DCT 41N160E/N0494F330 44N170E 48N180E 51N170W DCT DUT J115 CDB/N0486F350 J115 AKN DCT HOM DCT MDO Q16 YAK DCT YXY DCT 61N130W 60N120W DCT HOGAR DCT YVC Q919 KENRU/N0488F370 Q919 OMVEG DCT FELTN DCT DUTEL Q917 PEPLA Q140 YODAA DCT IGN IGN1
Aircraft B77W/H-SDE1E2E3FGHIJ2J3J4J5M1RWXY/LB1D1

Departure

Time N/A
Airport Ninoy Aquino International Airport (RPLL)

Arrival

Time 2026-05-04 06:38
Airport John F. Kennedy International Airport (KJFK)
Time Latitude Longitude Altitude Speed Heading
2026-05-04 05:04 46.92024 -85.41940 36677 ft 517 kts 127°
2026-05-04 05:04 46.87752 -85.33533 36675 ft 517 kts 127°
2026-05-04 05:06 46.76959 -85.12408 36680 ft 518 kts 127°
2026-05-04 05:07 46.61563 -84.82548 36684 ft 519 kts 127°
2026-05-04 05:09 46.41937 -84.44942 36685 ft 519 kts 127°
2026-05-04 05:10 46.37574 -84.36650 36684 ft 519 kts 127°
2026-05-04 05:10 46.33175 -84.28314 36692 ft 520 kts 128°
2026-05-04 05:11 46.28789 -84.20029 36690 ft 520 kts 128°
2026-05-04 05:11 46.24369 -84.11703 36690 ft 520 kts 128°
2026-05-04 05:12 46.19986 -84.03473 36698 ft 520 kts 128°
2026-05-04 05:12 46.15569 -83.95202 36698 ft 520 kts 128°
2026-05-04 05:13 46.11140 -83.86933 36700 ft 520 kts 128°
2026-05-04 05:13 46.06765 -83.78790 36704 ft 520 kts 128°
2026-05-04 05:14 46.02254 -83.70418 36704 ft 520 kts 128°
2026-05-04 05:14 45.97781 -83.62141 36703 ft 520 kts 128°
2026-05-04 05:15 45.93328 -83.53924 36706 ft 520 kts 128°
2026-05-04 05:15 45.88861 -83.45708 36706 ft 520 kts 128°
2026-05-04 05:16 45.84428 -83.37576 36714 ft 520 kts 128°
2026-05-04 05:16 45.79964 -83.29411 36713 ft 520 kts 128°
2026-05-04 05:17 45.75471 -83.21217 36716 ft 520 kts 128°
2026-05-04 05:17 45.71023 -83.13129 36713 ft 520 kts 128°
2026-05-04 05:18 45.66549 -83.05018 36715 ft 520 kts 129°
2026-05-04 05:18 45.62057 -82.96896 36714 ft 519 kts 129°
2026-05-04 05:19 45.58288 -82.90101 36712 ft 519 kts 129°
2026-05-04 05:19 45.53802 -82.82032 36716 ft 519 kts 129°
2026-05-04 05:20 45.49312 -82.73981 36716 ft 518 kts 129°
2026-05-04 05:20 45.44808 -82.65927 36715 ft 518 kts 129°
2026-05-04 05:21 45.40324 -82.57931 36718 ft 518 kts 129°
2026-05-04 05:21 45.35788 -82.49866 36716 ft 518 kts 129°
2026-05-04 05:22 45.33521 -82.45845 36718 ft 518 kts 129°
2026-05-04 05:22 45.26765 -82.33892 36723 ft 518 kts 129°
2026-05-04 05:23 45.22239 -82.25912 36720 ft 518 kts 129°
2026-05-04 05:23 45.17703 -82.17938 36720 ft 518 kts 130°
2026-05-04 05:24 45.13193 -82.10031 36744 ft 519 kts 130°
2026-05-04 05:24 45.08633 -82.02060 36747 ft 519 kts 130°
2026-05-04 05:25 45.04076 -81.94116 36733 ft 519 kts 130°
2026-05-04 05:25 44.99517 -81.86188 36748 ft 519 kts 130°
2026-05-04 05:26 44.94975 -81.78315 36753 ft 519 kts 130°
2026-05-04 05:26 44.90404 -81.70411 36750 ft 518 kts 130°
2026-05-04 05:28 44.72163 -81.39089 36764 ft 516 kts 130°
2026-05-04 05:29 44.67593 -81.31293 36770 ft 515 kts 130°
2026-05-04 05:29 44.62843 -81.23838 36772 ft 514 kts 134°
2026-05-04 05:31 44.43313 -80.94709 36779 ft 512 kts 135°
2026-05-04 05:32 44.38430 -80.87440 36781 ft 512 kts 135°
2026-05-04 05:33 44.31096 -80.76562 36783 ft 512 kts 135°
2026-05-04 05:33 44.26235 -80.69378 36788 ft 512 kts 135°
2026-05-04 05:34 44.21334 -80.62152 36790 ft 512 kts 135°
2026-05-04 05:34 44.16431 -80.54941 36788 ft 512 kts 135°
2026-05-04 05:35 44.11539 -80.47764 36796 ft 512 kts 135°
2026-05-04 05:35 44.06636 -80.40592 36796 ft 512 kts 135°
2026-05-04 05:36 44.01722 -80.33421 36800 ft 512 kts 136°
2026-05-04 05:36 43.96808 -80.26268 36801 ft 512 kts 136°
2026-05-04 05:37 43.91882 -80.19114 36799 ft 512 kts 136°
2026-05-04 05:37 43.86934 -80.11945 36798 ft 512 kts 136°
2026-05-04 05:38 43.80188 -80.00523 36808 ft 515 kts 120°
2026-05-04 05:38 43.77402 -79.91411 36808 ft 516 kts 107°
2026-05-04 05:39 43.74460 -79.77067 36811 ft 517 kts 106°
2026-05-04 05:40 43.71444 -79.62785 36816 ft 516 kts 107°
2026-05-04 05:40 43.69383 -79.53257 36811 ft 516 kts 107°
2026-05-04 05:41 43.67326 -79.43759 36819 ft 516 kts 107°
2026-05-04 05:41 43.65240 -79.34288 36808 ft 516 kts 110°
2026-05-04 05:42 43.63992 -79.29639 36818 ft 515 kts 112°
2026-05-04 05:42 43.60066 -79.15829 36815 ft 516 kts 112°
2026-05-04 05:43 43.57454 -79.06588 36822 ft 516 kts 112°
2026-05-04 05:45 43.47039 -78.69774 36839 ft 517 kts 112°
2026-05-04 05:47 43.36422 -78.32938 36850 ft 518 kts 113°
2026-05-04 05:47 43.33763 -78.23785 36853 ft 519 kts 113°
2026-05-04 05:48 43.31072 -78.14582 36858 ft 519 kts 114°
2026-05-04 05:48 43.27769 -78.05775 36874 ft 517 kts 122°
2026-05-04 05:49 43.24147 -77.97226 36865 ft 518 kts 122°
2026-05-04 05:49 43.20519 -77.88653 36882 ft 518 kts 122°
2026-05-04 05:51 43.06125 -77.54438 36887 ft 518 kts 122°
2026-05-04 05:52 43.02507 -77.45900 36879 ft 518 kts 122°
2026-05-04 05:52 42.99492 -77.38805 36877 ft 519 kts 122°
2026-05-04 05:54 42.84851 -77.04896 36884 ft 519 kts 124°
2026-05-04 05:55 42.81091 -76.96461 36903 ft 519 kts 123°
2026-05-04 05:55 42.77797 -76.88978 36902 ft 519 kts 123°
2026-05-04 05:56 42.77588 -76.88501 36901 ft 519 kts 123°
2026-05-04 05:56 42.73868 -76.80034 36892 ft 519 kts 123°
2026-05-04 05:57 42.70132 -76.71575 36897 ft 519 kts 123°
2026-05-04 05:57 42.66427 -76.63215 36913 ft 519 kts 123°
2026-05-04 05:58 42.62688 -76.54834 36908 ft 519 kts 124°
2026-05-04 05:58 42.58923 -76.46450 36913 ft 519 kts 124°
2026-05-04 05:59 42.55152 -76.38064 36914 ft 519 kts 124°
2026-05-04 05:59 42.51404 -76.29747 36915 ft 519 kts 124°
2026-05-04 06:00 42.47614 -76.21377 36915 ft 519 kts 124°
2026-05-04 06:00 42.43809 -76.12998 36914 ft 519 kts 124°
2026-05-04 06:01 42.40013 -76.04657 36912 ft 519 kts 124°
2026-05-04 06:03 42.24816 -75.71500 36933 ft 519 kts 125°
2026-05-04 06:05 42.07587 -75.34345 36945 ft 521 kts 122°
2026-05-04 06:06 42.04567 -75.25455 36942 ft 524 kts 111°
2026-05-04 06:06 42.02210 -75.16207 36947 ft 525 kts 110°
2026-05-04 06:07 41.99837 -75.06884 36957 ft 525 kts 111°
2026-05-04 06:07 41.97434 -74.97658 36959 ft 526 kts 111°
2026-05-04 06:08 41.94991 -74.88375 36963 ft 526 kts 111°
2026-05-04 06:08 41.92539 -74.79088 36962 ft 527 kts 111°
2026-05-04 06:09 41.90100 -74.69869 36956 ft 527 kts 111°
2026-05-04 06:11 41.80241 -74.32702 34311 ft 511 kts 112°
2026-05-04 06:11 41.79040 -74.28203 33627 ft 511 kts 112°
2026-05-04 06:13 41.70842 -73.97789 30146 ft 483 kts 111°
2026-05-04 06:14 41.63274 -73.73511 27130 ft 458 kts 119°
2026-05-04 06:14 41.61820 -73.69727 26630 ft 455 kts 119°
2026-05-04 06:15 41.60384 -73.65970 26169 ft 452 kts 119°
2026-05-04 06:15 41.58971 -73.62246 25687 ft 449 kts 118°
2026-05-04 06:15 41.57581 -73.58571 25246 ft 447 kts 118°
2026-05-04 06:15 41.56161 -73.54823 24774 ft 444 kts 119°
2026-05-04 06:16 41.54621 -73.51341 24309 ft 439 kts 128°
2026-05-04 06:16 41.52684 -73.48198 23855 ft 433 kts 137°
2026-05-04 06:16 41.50511 -73.45466 23354 ft 428 kts 146°
2026-05-04 06:16 41.48129 -73.43118 22853 ft 423 kts 148°
2026-05-04 06:17 41.45740 -73.40843 22342 ft 421 kts 149°
2026-05-04 06:17 41.43351 -73.38576 21887 ft 417 kts 149°
2026-05-04 06:17 41.41023 -73.36360 21416 ft 415 kts 149°
2026-05-04 06:17 41.38677 -73.34116 20960 ft 413 kts 148°
2026-05-04 06:18 41.36345 -73.31877 20489 ft 410 kts 148°
2026-05-04 06:18 41.34030 -73.29652 20034 ft 408 kts 148°
2026-05-04 06:18 41.31734 -73.27443 19566 ft 407 kts 148°
2026-05-04 06:20 41.15976 -73.12174 16290 ft 396 kts 143°
2026-05-04 06:20 41.13987 -73.09584 15764 ft 399 kts 136°
2026-05-04 06:21 41.05207 -73.03173 13956 ft 353 kts 193°
2026-05-04 06:21 41.02837 -73.03919 13447 ft 345 kts 205°
2026-05-04 06:22 41.00723 -73.05280 12933 ft 335 kts 221°
2026-05-04 06:22 40.98962 -73.07231 12495 ft 326 kts 226°
2026-05-04 06:25 40.79327 -73.30188 8063 ft 270 kts 226°
2026-05-04 06:25 40.77873 -73.31729 7758 ft 270 kts 221°
2026-05-04 06:26 40.76413 -73.33115 7634 ft 256 kts 220°
2026-05-04 06:26 40.74971 -73.34462 7555 ft 245 kts 220°
2026-05-04 06:26 40.73609 -73.35736 7473 ft 235 kts 221°
2026-05-04 06:26 40.72326 -73.36942 7403 ft 222 kts 221°
2026-05-04 06:27 40.67560 -73.41457 6417 ft 201 kts 221°
2026-05-04 06:28 40.66827 -73.42152 6215 ft 191 kts 221°
2026-05-04 06:28 40.65786 -73.43137 5990 ft 177 kts 222°
2026-05-04 06:28 40.64828 -73.44045 5772 ft 166 kts 223°
2026-05-04 06:28 40.63917 -73.44910 5563 ft 159 kts 223°
2026-05-04 06:29 40.63018 -73.45768 5423 ft 160 kts 223°
2026-05-04 06:29 40.62146 -73.46596 5186 ft 148 kts 223°
2026-05-04 06:29 40.61326 -73.47375 5004 ft 144 kts 223°
2026-05-04 06:29 40.60495 -73.48169 4879 ft 151 kts 223°
2026-05-04 06:30 40.59656 -73.48966 4676 ft 149 kts 223°
2026-05-04 06:30 40.58819 -73.49759 4480 ft 147 kts 223°
2026-05-04 06:30 40.57986 -73.50548 4299 ft 147 kts 223°
2026-05-04 06:30 40.57149 -73.51341 4123 ft 147 kts 223°
2026-05-04 06:31 40.56322 -73.52124 3948 ft 146 kts 223°
2026-05-04 06:31 40.55497 -73.52905 3763 ft 144 kts 223°
2026-05-04 06:31 40.54811 -73.53765 3655 ft 137 kts 245°
2026-05-04 06:31 40.54401 -73.54899 3648 ft 140 kts 253°
2026-05-04 06:32 40.54138 -73.56116 3550 ft 135 kts 256°
2026-05-04 06:33 40.56718 -73.63758 2492 ft 133 kts 296°
2026-05-04 06:34 40.57187 -73.64796 2324 ft 131 kts 296°
2026-05-04 06:34 40.57653 -73.65823 2195 ft 129 kts 296°
2026-05-04 06:34 40.58112 -73.66837 2044 ft 129 kts 296°
2026-05-04 06:34 40.58563 -73.67830 1883 ft 125 kts 296°
2026-05-04 06:35 40.59004 -73.68803 1701 ft 122 kts 296°
2026-05-04 06:36 40.62198 -73.75793 491 ft 139 kts 297°
2026-05-04 06:37 40.62686 -73.76907 322 ft 143 kts 298°
2026-05-04 06:37 40.63201 -73.78037 91 ft 143 kts 298°
2026-05-04 06:37 40.63689 -73.79108 28 ft 128 kts 298°
2026-05-04 06:37 40.64031 -73.79902 28 ft 75 kts 301°
2026-05-04 06:38 40.64257 -73.80387 32 ft 41 kts 307°
2026-05-04 06:38 40.64406 -73.80431 29 ft 19 kts 28°
2026-05-04 06:40 40.64251 -73.79840 31 ft 18 kts 134°
2026-05-04 06:40 40.64173 -73.79709 31 ft 18 kts 122°
2026-05-04 06:40 40.64099 -73.79555 29 ft 29 kts 124°
2026-05-04 06:40 40.63936 -73.79200 29 ft 53 kts 120°
2026-05-04 06:41 40.63751 -73.78794 30 ft 51 kts 120°
2026-05-04 06:41 40.63592 -73.78436 30 ft 30 kts 115°
2026-05-04 06:41 40.63628 -73.78349 31 ft 11 kts 11°
2026-05-04 06:41 40.63702 -73.78308 28 ft 12 kts 32°
2026-05-04 06:42 40.63773 -73.78246 30 ft 13 kts 50°
2026-05-04 06:42 40.63790 -73.78179 28 ft 0 kts 79°